Year,Month,Day,Hour,Minute,Value (Times are PST for temperature in C)
2006,08,07,00,00,15.90
2006,08,07,00,01,15.90
2006,08,07,00,02,15.80
2006,08,07,00,03,15.80
2006,08,07,00,04,15.80
2006,08,07,00,05,15.80
2006,08,07,00,06,15.80
2006,08,07,00,07,15.80
2006,08,07,00,08,15.80
2006,08,07,00,09,15.80
2006,08,07,00,10,15.80
2006,08,07,00,11,15.70
2006,08,07,00,12,15.60
2006,08,07,00,13,15.60
2006,08,07,00,14,15.60
2006,08,07,00,15,15.50
2006,08,07,00,16,15.50
2006,08,07,00,17,15.50
2006,08,07,00,18,15.40
2006,08,07,00,19,15.40
2006,08,07,00,20,15.40
2006,08,07,00,21,15.30
2006,08,07,00,22,15.30
2006,08,07,00,23,15.30
2006,08,07,00,24,15.30
2006,08,07,00,25,15.30
2006,08,07,00,26,15.30
2006,08,07,00,27,15.30
2006,08,07,00,28,15.30
2006,08,07,00,29,15.20
2006,08,07,00,30,15.20
2006,08,07,00,31,15.20
2006,08,07,00,32,15.20
2006,08,07,00,33,15.20
2006,08,07,00,34,15.10
2006,08,07,00,35,15.10
2006,08,07,00,36,15.10
2006,08,07,00,37,15.10
2006,08,07,00,38,15.10
2006,08,07,00,39,15.10
2006,08,07,00,40,15.10
2006,08,07,00,41,15.00
2006,08,07,00,42,15.00
2006,08,07,00,43,15.00
2006,08,07,00,44,15.00
2006,08,07,00,45,15.00
2006,08,07,00,46,15.00
2006,08,07,00,47,14.90
2006,08,07,00,48,14.90
2006,08,07,00,49,14.90
2006,08,07,00,50,14.90
2006,08,07,00,51,14.90
2006,08,07,00,52,14.90
2006,08,07,00,53,14.90
2006,08,07,00,54,14.80
2006,08,07,00,55,14.80
2006,08,07,00,56,14.80
2006,08,07,00,57,14.80
2006,08,07,00,58,14.70
2006,08,07,00,59,14.70
2006,08,07,01,00,14.60
2006,08,07,01,01,14.60
2006,08,07,01,02,14.60
2006,08,07,01,03,14.50
2006,08,07,01,04,14.50
2006,08,07,01,05,14.40
2006,08,07,01,06,14.40
2006,08,07,01,07,14.30
2006,08,07,01,08,14.30
2006,08,07,01,09,14.20
2006,08,07,01,10,14.20
2006,08,07,01,11,14.20
2006,08,07,01,12,14.20
2006,08,07,01,13,14.20
2006,08,07,01,14,14.20
2006,08,07,01,15,14.20
2006,08,07,01,16,14.20
2006,08,07,01,17,14.10
2006,08,07,01,18,14.10
2006,08,07,01,19,14.10
2006,08,07,01,20,14.10
2006,08,07,01,21,14.10
2006,08,07,01,22,14.10
2006,08,07,01,23,14.10
2006,08,07,01,24,14.10
2006,08,07,01,25,14.10
2006,08,07,01,26,14.10
2006,08,07,01,27,14.10
2006,08,07,01,28,14.10
2006,08,07,01,29,14.10
2006,08,07,01,30,14.10
2006,08,07,01,31,14.10
2006,08,07,01,32,14.10
2006,08,07,01,33,14.10
2006,08,07,01,34,14.10
2006,08,07,01,35,14.00
2006,08,07,01,36,14.00
2006,08,07,01,37,14.00
2006,08,07,01,38,14.00
2006,08,07,01,39,14.00
2006,08,07,01,40,13.90
2006,08,07,01,41,13.90
2006,08,07,01,42,13.90
2006,08,07,01,43,13.90
2006,08,07,01,44,13.90
2006,08,07,01,45,13.90
2006,08,07,01,46,13.90
2006,08,07,01,47,13.80
2006,08,07,01,48,13.80
2006,08,07,01,49,13.80
2006,08,07,01,50,13.80
2006,08,07,01,51,13.80
2006,08,07,01,52,13.80
2006,08,07,01,53,13.80
2006,08,07,01,54,13.80
2006,08,07,01,55,13.70
2006,08,07,01,56,13.70
2006,08,07,01,57,13.70
2006,08,07,01,58,13.70
2006,08,07,01,59,13.70
2006,08,07,02,00,13.70
2006,08,07,02,01,13.70
2006,08,07,02,02,13.70
2006,08,07,02,03,13.70
2006,08,07,02,04,13.70
2006,08,07,02,05,13.70
2006,08,07,02,06,13.70
2006,08,07,02,07,13.70
2006,08,07,02,08,13.70
2006,08,07,02,09,13.70
2006,08,07,02,10,13.60
2006,08,07,02,11,13.60
2006,08,07,02,12,13.60
2006,08,07,02,13,13.60
2006,08,07,02,14,13.60
2006,08,07,02,15,13.60
2006,08,07,02,16,13.60
2006,08,07,02,17,13.60
2006,08,07,02,18,13.60
2006,08,07,02,19,13.60
2006,08,07,02,20,13.60
2006,08,07,02,21,13.60
2006,08,07,02,22,13.60
2006,08,07,02,23,13.60
2006,08,07,02,24,13.60
2006,08,07,02,25,13.60
2006,08,07,02,26,13.60
2006,08,07,02,27,13.60
2006,08,07,02,28,13.60
2006,08,07,02,29,13.60
2006,08,07,02,30,13.60
2006,08,07,02,31,13.60
2006,08,07,02,32,13.60
2006,08,07,02,33,13.60
2006,08,07,02,34,13.60
2006,08,07,02,35,13.50
2006,08,07,02,36,13.50
2006,08,07,02,37,13.50
2006,08,07,02,38,13.50
2006,08,07,02,39,13.50
2006,08,07,02,40,13.50
2006,08,07,02,41,13.40
2006,08,07,02,42,13.40
2006,08,07,02,43,13.40
2006,08,07,02,44,13.40
2006,08,07,02,45,13.40
2006,08,07,02,46,13.40
2006,08,07,02,47,13.40
2006,08,07,02,48,13.30
2006,08,07,02,49,13.30
2006,08,07,02,50,13.30
2006,08,07,02,51,13.30
2006,08,07,02,52,13.30
2006,08,07,02,53,13.30
2006,08,07,02,54,13.30
2006,08,07,02,55,13.30
2006,08,07,02,56,13.30
2006,08,07,02,57,13.30
2006,08,07,02,58,13.30
2006,08,07,02,59,13.30
2006,08,07,03,00,13.30
2006,08,07,03,01,13.30
2006,08,07,03,02,13.30
2006,08,07,03,03,13.30
2006,08,07,03,04,13.30
2006,08,07,03,05,13.30
2006,08,07,03,06,13.30
2006,08,07,03,07,13.30
2006,08,07,03,08,13.40
2006,08,07,03,09,13.40
2006,08,07,03,10,13.40
2006,08,07,03,11,13.40
2006,08,07,03,12,13.40
2006,08,07,03,13,13.40
2006,08,07,03,14,13.40
2006,08,07,03,15,13.40
2006,08,07,03,16,13.40
2006,08,07,03,17,13.40
2006,08,07,03,18,13.40
2006,08,07,03,19,13.40
2006,08,07,03,20,13.30
2006,08,07,03,21,13.30
2006,08,07,03,22,13.30
2006,08,07,03,23,13.30
2006,08,07,03,24,13.30
2006,08,07,03,25,13.30
2006,08,07,03,26,13.20
2006,08,07,03,27,13.20
2006,08,07,03,28,13.20
2006,08,07,03,29,13.20
2006,08,07,03,30,13.20
2006,08,07,03,31,13.20
2006,08,07,03,32,13.20
2006,08,07,03,33,13.20
2006,08,07,03,34,13.20
2006,08,07,03,35,13.20
2006,08,07,03,36,13.20
2006,08,07,03,37,13.20
2006,08,07,03,38,13.20
2006,08,07,03,39,13.10
2006,08,07,03,40,13.10
2006,08,07,03,41,13.10
2006,08,07,03,42,13.00
2006,08,07,03,43,13.00
2006,08,07,03,44,13.00
2006,08,07,03,45,13.00
2006,08,07,03,46,12.90
2006,08,07,03,47,12.90
2006,08,07,03,48,12.90
2006,08,07,03,49,12.90
2006,08,07,03,50,12.80
2006,08,07,03,51,12.80
2006,08,07,03,52,12.80
2006,08,07,03,53,12.80
2006,08,07,03,54,12.80
2006,08,07,03,55,12.80
2006,08,07,03,56,12.80
2006,08,07,03,57,12.80
2006,08,07,03,58,12.80
2006,08,07,03,59,12.80
2006,08,07,04,00,12.80
2006,08,07,04,01,12.80
2006,08,07,04,02,12.80
2006,08,07,04,03,12.80
2006,08,07,04,04,12.80
2006,08,07,04,05,12.80
2006,08,07,04,06,12.80
2006,08,07,04,07,12.80
2006,08,07,04,08,12.80
2006,08,07,04,09,12.80
2006,08,07,04,10,12.80
2006,08,07,04,11,12.80
2006,08,07,04,12,12.80
2006,08,07,04,13,12.70
2006,08,07,04,14,12.80
2006,08,07,04,15,12.80
2006,08,07,04,16,12.80
2006,08,07,04,17,12.80
2006,08,07,04,18,12.80
2006,08,07,04,19,12.80
2006,08,07,04,20,12.80
2006,08,07,04,21,12.80
2006,08,07,04,22,12.80
2006,08,07,04,23,12.80
2006,08,07,04,24,12.80
2006,08,07,04,25,12.80
2006,08,07,04,26,12.80
2006,08,07,04,27,12.80
2006,08,07,04,28,12.80
2006,08,07,04,29,12.80
2006,08,07,04,30,12.80
2006,08,07,04,31,12.80
2006,08,07,04,32,12.80
2006,08,07,04,33,12.80
2006,08,07,04,34,12.80
2006,08,07,04,35,12.80
2006,08,07,04,36,12.80
2006,08,07,04,37,12.80
2006,08,07,04,38,12.80
2006,08,07,04,39,12.80
2006,08,07,04,40,12.70
2006,08,07,04,41,12.70
2006,08,07,04,42,12.70
2006,08,07,04,43,12.70
2006,08,07,04,44,12.60
2006,08,07,04,45,12.60
2006,08,07,04,46,12.60
2006,08,07,04,47,12.60
2006,08,07,04,48,12.60
2006,08,07,04,49,12.60
2006,08,07,04,50,12.60
2006,08,07,04,51,12.60
2006,08,07,04,52,12.50
2006,08,07,04,53,12.50
2006,08,07,04,54,12.40
2006,08,07,04,55,12.40
2006,08,07,04,56,12.40
2006,08,07,04,57,12.30
2006,08,07,04,58,12.30
2006,08,07,04,59,12.30
2006,08,07,05,00,12.30
2006,08,07,05,01,12.20
2006,08,07,05,02,12.20
2006,08,07,05,03,12.20
2006,08,07,05,04,12.20
2006,08,07,05,05,12.20
2006,08,07,05,06,12.20
2006,08,07,05,07,12.20
2006,08,07,05,08,12.10
2006,08,07,05,09,12.10
2006,08,07,05,10,12.10
2006,08,07,05,11,12.10
2006,08,07,05,12,12.10
2006,08,07,05,13,12.00
2006,08,07,05,14,12.00
2006,08,07,05,15,12.10
2006,08,07,05,16,12.10
2006,08,07,05,17,12.10
2006,08,07,05,18,12.00
2006,08,07,05,19,12.00
2006,08,07,05,20,12.00
2006,08,07,05,21,12.00
2006,08,07,05,22,12.00
2006,08,07,05,23,12.00
2006,08,07,05,24,12.00
2006,08,07,05,25,12.00
2006,08,07,05,26,12.10
2006,08,07,05,27,12.10
2006,08,07,05,28,12.10
2006,08,07,05,29,12.10
2006,08,07,05,30,12.10
2006,08,07,05,31,12.10
2006,08,07,05,32,12.10
2006,08,07,05,33,12.10
2006,08,07,05,34,12.10
2006,08,07,05,35,12.10
2006,08,07,05,36,12.10
2006,08,07,05,37,12.10
2006,08,07,05,38,12.10
2006,08,07,05,39,12.10
2006,08,07,05,40,12.10
2006,08,07,05,41,12.10
2006,08,07,05,42,12.10
2006,08,07,05,43,12.10
2006,08,07,05,44,12.10
2006,08,07,05,45,12.00
2006,08,07,05,46,12.00
2006,08,07,05,47,12.00
2006,08,07,05,48,12.00
2006,08,07,05,49,12.00
2006,08,07,05,50,12.00
2006,08,07,05,51,12.00
2006,08,07,05,52,12.00
2006,08,07,05,53,12.00
2006,08,07,05,54,12.00
2006,08,07,05,55,12.00
2006,08,07,05,56,12.00
2006,08,07,05,57,12.00
2006,08,07,05,58,12.00
2006,08,07,05,59,12.00
2006,08,07,06,00,12.00
2006,08,07,06,01,12.00
2006,08,07,06,02,12.00
2006,08,07,06,03,12.00
2006,08,07,06,04,12.00
2006,08,07,06,05,12.00
2006,08,07,06,06,12.00
2006,08,07,06,07,12.00
2006,08,07,06,08,12.10
2006,08,07,06,09,12.10
2006,08,07,06,10,12.10
2006,08,07,06,11,12.10
2006,08,07,06,12,12.10
2006,08,07,06,13,12.20
2006,08,07,06,14,12.20
2006,08,07,06,15,12.20
2006,08,07,06,16,12.20
2006,08,07,06,17,12.20
2006,08,07,06,18,12.30
2006,08,07,06,19,12.30
2006,08,07,06,20,12.30
2006,08,07,06,21,12.30
2006,08,07,06,22,12.30
2006,08,07,06,23,12.30
2006,08,07,06,24,12.30
2006,08,07,06,25,12.30
2006,08,07,06,26,12.30
2006,08,07,06,27,12.30
2006,08,07,06,28,12.30
2006,08,07,06,29,12.40
2006,08,07,06,30,12.40
2006,08,07,06,31,12.40
2006,08,07,06,32,12.40
2006,08,07,06,33,12.50
2006,08,07,06,34,12.50
2006,08,07,06,35,12.50
2006,08,07,06,36,12.50
2006,08,07,06,37,12.50
2006,08,07,06,38,12.60
2006,08,07,06,39,12.60
2006,08,07,06,40,12.60
2006,08,07,06,41,12.60
2006,08,07,06,42,12.70
2006,08,07,06,43,12.70
2006,08,07,06,44,12.70
2006,08,07,06,45,12.80
2006,08,07,06,46,12.80
2006,08,07,06,47,12.80
2006,08,07,06,48,12.80
2006,08,07,06,49,12.80
2006,08,07,06,50,12.90
2006,08,07,06,51,12.90
2006,08,07,06,52,13.00
2006,08,07,06,53,13.00
2006,08,07,06,54,13.00
2006,08,07,06,55,13.10
2006,08,07,06,56,13.20
2006,08,07,06,57,13.20
2006,08,07,06,58,13.30
2006,08,07,06,59,13.30
2006,08,07,07,00,13.30
2006,08,07,07,01,13.30
2006,08,07,07,02,13.30
2006,08,07,07,03,13.30
2006,08,07,07,04,13.40
2006,08,07,07,05,13.40
2006,08,07,07,06,13.50
2006,08,07,07,07,13.50
2006,08,07,07,08,13.60
2006,08,07,07,09,13.70
2006,08,07,07,10,13.70
2006,08,07,07,11,13.70
2006,08,07,07,12,13.80
2006,08,07,07,13,13.80
2006,08,07,07,14,13.90
2006,08,07,07,15,13.90
2006,08,07,07,16,13.90
2006,08,07,07,17,14.00
2006,08,07,07,18,14.10
2006,08,07,07,19,14.10
2006,08,07,07,20,14.20
2006,08,07,07,21,14.20
2006,08,07,07,22,14.20
2006,08,07,07,23,14.20
2006,08,07,07,24,14.20
2006,08,07,07,25,14.20
2006,08,07,07,26,14.20
2006,08,07,07,27,14.20
2006,08,07,07,28,14.20
2006,08,07,07,29,14.20
2006,08,07,07,30,14.20
2006,08,07,07,31,14.20
2006,08,07,07,32,14.20
2006,08,07,07,33,14.20
2006,08,07,07,34,14.20
2006,08,07,07,35,14.20
2006,08,07,07,36,14.20
2006,08,07,07,37,14.20
2006,08,07,07,38,14.20
2006,08,07,07,39,14.20
2006,08,07,07,40,14.30
2006,08,07,07,41,14.30
2006,08,07,07,42,14.30
2006,08,07,07,43,14.30
2006,08,07,07,44,14.30
2006,08,07,07,45,14.30
2006,08,07,07,46,14.30
2006,08,07,07,47,14.30
2006,08,07,07,48,14.30
2006,08,07,07,49,14.40
2006,08,07,07,50,14.40
2006,08,07,07,51,14.50
2006,08,07,07,52,14.60
2006,08,07,07,53,14.60
2006,08,07,07,54,14.70
2006,08,07,07,55,14.80
2006,08,07,07,56,14.80
2006,08,07,07,57,14.80
2006,08,07,07,58,14.80
2006,08,07,07,59,14.80
2006,08,07,08,00,14.80
2006,08,07,08,01,15.00
2006,08,07,08,02,15.10
2006,08,07,08,03,15.10
2006,08,07,08,04,15.10
2006,08,07,08,05,15.10
2006,08,07,08,06,15.10
2006,08,07,08,07,15.10
2006,08,07,08,08,15.20
2006,08,07,08,09,15.20
2006,08,07,08,10,15.20
2006,08,07,08,11,15.30
2006,08,07,08,12,15.30
2006,08,07,08,13,15.30
2006,08,07,08,14,15.30
2006,08,07,08,15,15.30
2006,08,07,08,16,15.30
2006,08,07,08,17,15.50
2006,08,07,08,18,15.50
2006,08,07,08,19,15.50
2006,08,07,08,20,15.50
2006,08,07,08,21,15.60
2006,08,07,08,22,15.70
2006,08,07,08,23,15.80
2006,08,07,08,24,15.80
2006,08,07,08,25,15.90
2006,08,07,08,26,16.00
2006,08,07,08,27,16.10
2006,08,07,08,28,16.20
2006,08,07,08,29,16.20
2006,08,07,08,30,16.30
2006,08,07,08,31,16.40
2006,08,07,08,32,16.40
2006,08,07,08,33,16.40
2006,08,07,08,34,16.40
2006,08,07,08,35,16.40
2006,08,07,08,36,16.40
2006,08,07,08,37,16.40
2006,08,07,08,38,16.40
2006,08,07,08,39,16.40
2006,08,07,08,40,16.40
2006,08,07,08,41,16.40
2006,08,07,08,42,16.40
2006,08,07,08,43,16.40
2006,08,07,08,44,16.40
2006,08,07,08,45,16.50
2006,08,07,08,46,16.60
2006,08,07,08,47,16.70
2006,08,07,08,48,16.70
2006,08,07,08,49,16.70
2006,08,07,08,50,16.80
2006,08,07,08,51,16.90
2006,08,07,08,52,16.90
2006,08,07,08,53,17.00
2006,08,07,08,54,17.00
2006,08,07,08,55,17.10
2006,08,07,08,56,17.20
2006,08,07,08,57,17.20
2006,08,07,08,58,17.30
2006,08,07,08,59,17.30
2006,08,07,09,00,17.30
2006,08,07,09,01,17.30
2006,08,07,09,02,17.40
2006,08,07,09,03,17.50
2006,08,07,09,04,17.50
2006,08,07,09,05,17.50
2006,08,07,09,06,17.50
2006,08,07,09,07,17.50
2006,08,07,09,08,17.50
2006,08,07,09,09,17.50
2006,08,07,09,10,17.50
2006,08,07,09,11,17.50
2006,08,07,09,12,17.50
2006,08,07,09,13,17.50
2006,08,07,09,14,17.60
2006,08,07,09,15,17.60
2006,08,07,09,16,17.70
2006,08,07,09,17,17.70
2006,08,07,09,18,17.70
2006,08,07,09,19,17.70
2006,08,07,09,20,17.70
2006,08,07,09,21,17.80
2006,08,07,09,22,17.90
2006,08,07,09,23,18.00
2006,08,07,09,24,18.10
2006,08,07,09,25,18.20
2006,08,07,09,26,18.20
2006,08,07,09,27,18.30
2006,08,07,09,28,18.30
2006,08,07,09,29,18.30
2006,08,07,09,30,18.20
2006,08,07,09,31,18.20
2006,08,07,09,32,18.20
2006,08,07,09,33,18.10
2006,08,07,09,34,18.10
2006,08,07,09,35,18.10
2006,08,07,09,36,18.10
2006,08,07,09,37,18.20
2006,08,07,09,38,18.20
2006,08,07,09,39,18.20
2006,08,07,09,40,18.20
2006,08,07,09,41,18.20
2006,08,07,09,42,18.30
2006,08,07,09,43,18.40
2006,08,07,09,44,18.50
2006,08,07,09,45,18.70
2006,08,07,09,46,18.70
2006,08,07,09,47,18.90
2006,08,07,09,48,19.00
2006,08,07,09,49,19.10
2006,08,07,09,50,19.10
2006,08,07,09,51,19.30
2006,08,07,09,52,19.40
2006,08,07,09,53,19.60
2006,08,07,09,54,19.60
2006,08,07,09,55,19.70
2006,08,07,09,56,19.70
2006,08,07,09,57,19.60
2006,08,07,09,58,19.60
2006,08,07,09,59,19.60
2006,08,07,10,00,19.70
2006,08,07,10,01,19.80
2006,08,07,10,02,19.80
2006,08,07,10,03,19.80
2006,08,07,10,04,20.00
2006,08,07,10,05,20.20
2006,08,07,10,06,20.20
2006,08,07,10,07,20.20
2006,08,07,10,08,20.20
2006,08,07,10,09,20.20
2006,08,07,10,10,20.20
2006,08,07,10,11,20.20
2006,08,07,10,12,20.20
2006,08,07,10,13,20.30
2006,08,07,10,14,20.40
2006,08,07,10,15,20.40
2006,08,07,10,16,20.50
2006,08,07,10,17,20.50
2006,08,07,10,18,20.60
2006,08,07,10,19,20.60
2006,08,07,10,20,20.60
2006,08,07,10,21,20.60
2006,08,07,10,22,20.70
2006,08,07,10,23,20.70
2006,08,07,10,24,20.80
2006,08,07,10,25,20.80
2006,08,07,10,26,20.60
2006,08,07,10,27,20.50
2006,08,07,10,28,20.20
2006,08,07,10,29,20.10
2006,08,07,10,30,19.90
2006,08,07,10,31,20.00
2006,08,07,10,32,20.10
2006,08,07,10,33,20.20
2006,08,07,10,34,20.20
2006,08,07,10,35,20.10
2006,08,07,10,36,19.90
2006,08,07,10,37,20.00
2006,08,07,10,38,20.10
2006,08,07,10,39,20.20
2006,08,07,10,40,20.20
2006,08,07,10,41,20.20
2006,08,07,10,42,20.20
2006,08,07,10,43,20.30
2006,08,07,10,44,20.40
2006,08,07,10,45,20.40
2006,08,07,10,46,20.30
2006,08,07,10,47,20.30
2006,08,07,10,48,20.20
2006,08,07,10,49,20.20
2006,08,07,10,50,20.20
2006,08,07,10,51,20.10
2006,08,07,10,52,20.10
2006,08,07,10,53,20.10
2006,08,07,10,54,20.10
2006,08,07,10,55,20.20
2006,08,07,10,56,20.20
2006,08,07,10,57,20.20
2006,08,07,10,58,20.20
2006,08,07,10,59,20.20
2006,08,07,11,00,20.10
2006,08,07,11,01,20.10
2006,08,07,11,02,20.10
2006,08,07,11,03,20.10
2006,08,07,11,04,20.10
2006,08,07,11,05,20.10
2006,08,07,11,06,20.20
2006,08,07,11,07,20.20
2006,08,07,11,08,20.20
2006,08,07,11,09,20.20
2006,08,07,11,10,20.20
2006,08,07,11,11,20.20
2006,08,07,11,12,20.20
2006,08,07,11,13,20.20
2006,08,07,11,14,20.10
2006,08,07,11,15,20.10
2006,08,07,11,16,20.20
2006,08,07,11,17,20.30
2006,08,07,11,18,20.40
2006,08,07,11,19,20.50
2006,08,07,11,20,20.50
2006,08,07,11,21,20.60
2006,08,07,11,22,20.60
2006,08,07,11,23,20.60
2006,08,07,11,24,20.70
2006,08,07,11,25,20.70
2006,08,07,11,26,20.70
2006,08,07,11,27,20.70
2006,08,07,11,28,20.80
2006,08,07,11,29,20.90
2006,08,07,11,30,21.00
2006,08,07,11,31,21.10
2006,08,07,11,32,21.10
2006,08,07,11,33,21.10
2006,08,07,11,34,21.10
2006,08,07,11,35,21.10
2006,08,07,11,36,21.20
2006,08,07,11,37,21.20
2006,08,07,11,38,21.30
2006,08,07,11,39,21.30
2006,08,07,11,40,21.30
2006,08,07,11,41,21.40
2006,08,07,11,42,21.50
2006,08,07,11,43,21.60
2006,08,07,11,44,21.60
2006,08,07,11,45,21.60
2006,08,07,11,46,21.60
2006,08,07,11,47,21.60
2006,08,07,11,48,21.60
2006,08,07,11,49,21.80
2006,08,07,11,50,21.80
2006,08,07,11,51,21.80
2006,08,07,11,52,21.80
2006,08,07,11,53,21.80
2006,08,07,11,54,21.80
2006,08,07,11,55,21.80
2006,08,07,11,56,21.80
2006,08,07,11,57,21.80
2006,08,07,11,58,21.90
2006,08,07,11,59,21.80
2006,08,07,12,00,21.80
2006,08,07,12,01,21.80
2006,08,07,12,02,21.80
2006,08,07,12,03,21.80
2006,08,07,12,04,21.90
2006,08,07,12,05,22.00
2006,08,07,12,06,22.00
2006,08,07,12,07,22.10
2006,08,07,12,08,22.10
2006,08,07,12,09,22.20
2006,08,07,12,10,22.30
2006,08,07,12,11,22.40
2006,08,07,12,12,22.40
2006,08,07,12,13,22.40
2006,08,07,12,14,22.50
2006,08,07,12,15,22.60
2006,08,07,12,16,22.60
2006,08,07,12,17,22.60
2006,08,07,12,18,22.60
2006,08,07,12,19,22.60
2006,08,07,12,20,22.70
2006,08,07,12,21,22.70
2006,08,07,12,22,22.60
2006,08,07,12,23,22.60
2006,08,07,12,24,22.60
2006,08,07,12,25,22.60
2006,08,07,12,26,22.60
2006,08,07,12,27,22.60
2006,08,07,12,28,22.60
2006,08,07,12,29,22.50
2006,08,07,12,30,22.50
2006,08,07,12,31,22.40
2006,08,07,12,32,22.30
2006,08,07,12,33,22.20
2006,08,07,12,34,22.30
2006,08,07,12,35,22.30
2006,08,07,12,36,22.20
2006,08,07,12,37,22.10
2006,08,07,12,38,22.00
2006,08,07,12,39,22.00
2006,08,07,12,40,21.90
2006,08,07,12,41,21.90
2006,08,07,12,42,22.00
2006,08,07,12,43,22.00
2006,08,07,12,44,22.10
2006,08,07,12,45,22.20
2006,08,07,12,46,22.20
2006,08,07,12,47,22.30
2006,08,07,12,48,22.30
2006,08,07,12,49,22.30
2006,08,07,12,50,22.40
2006,08,07,12,51,22.40
2006,08,07,12,52,22.40
2006,08,07,12,53,22.40
2006,08,07,12,54,22.50
2006,08,07,12,55,22.60
2006,08,07,12,56,22.60
2006,08,07,12,57,22.60
2006,08,07,12,58,22.60
2006,08,07,12,59,22.50
2006,08,07,13,00,22.60
2006,08,07,13,01,22.60
2006,08,07,13,02,22.70
2006,08,07,13,03,22.80
2006,08,07,13,04,22.90
2006,08,07,13,05,22.90
2006,08,07,13,06,22.90
2006,08,07,13,07,22.90
2006,08,07,13,08,22.80
2006,08,07,13,09,22.80
2006,08,07,13,10,22.90
2006,08,07,13,11,23.00
2006,08,07,13,12,23.20
2006,08,07,13,13,23.20
2006,08,07,13,14,23.20
2006,08,07,13,15,23.20
2006,08,07,13,16,23.10
2006,08,07,13,17,23.10
2006,08,07,13,18,23.20
2006,08,07,13,19,23.20
2006,08,07,13,20,23.20
2006,08,07,13,21,23.20
2006,08,07,13,22,23.30
2006,08,07,13,23,23.40
2006,08,07,13,24,23.60
2006,08,07,13,25,23.70
2006,08,07,13,26,23.70
2006,08,07,13,27,23.70
2006,08,07,13,28,23.70
2006,08,07,13,29,23.70
2006,08,07,13,30,23.90
2006,08,07,13,31,23.90
2006,08,07,13,32,24.00
2006,08,07,13,33,24.20
2006,08,07,13,34,24.30
2006,08,07,13,35,24.40
2006,08,07,13,36,24.50
2006,08,07,13,37,24.40
2006,08,07,13,38,24.40
2006,08,07,13,39,24.30
2006,08,07,13,40,24.30
2006,08,07,13,41,24.30
2006,08,07,13,42,24.40
2006,08,07,13,43,24.50
2006,08,07,13,44,24.60
2006,08,07,13,45,24.70
2006,08,07,13,46,24.60
2006,08,07,13,47,24.50
2006,08,07,13,48,24.50
2006,08,07,13,49,24.50
2006,08,07,13,50,24.70
2006,08,07,13,51,24.80
2006,08,07,13,52,24.90
2006,08,07,13,53,25.00
2006,08,07,13,54,25.10
2006,08,07,13,55,25.10
2006,08,07,13,56,25.10
2006,08,07,13,57,25.00
2006,08,07,13,58,25.00
2006,08,07,13,59,25.00
2006,08,07,14,00,25.00
2006,08,07,14,01,25.10
2006,08,07,14,02,25.20
2006,08,07,14,03,25.20
2006,08,07,14,04,25.20
2006,08,07,14,05,25.20
2006,08,07,14,06,25.20
2006,08,07,14,07,25.20
2006,08,07,14,08,25.30
2006,08,07,14,09,25.20
2006,08,07,14,10,25.20
2006,08,07,14,11,25.20
2006,08,07,14,12,25.20
2006,08,07,14,13,25.30
2006,08,07,14,14,25.30
2006,08,07,14,15,25.10
2006,08,07,14,16,25.10
2006,08,07,14,17,25.10
2006,08,07,14,18,25.10
2006,08,07,14,19,25.10
2006,08,07,14,20,25.10
2006,08,07,14,21,25.10
2006,08,07,14,22,25.00
2006,08,07,14,23,25.00
2006,08,07,14,24,25.00
2006,08,07,14,25,25.00
2006,08,07,14,26,25.10
2006,08,07,14,27,25.20
2006,08,07,14,28,25.20
2006,08,07,14,29,25.20
2006,08,07,14,30,25.20
2006,08,07,14,31,25.30
2006,08,07,14,32,25.40
2006,08,07,14,33,25.50
2006,08,07,14,34,25.50
2006,08,07,14,35,25.50
2006,08,07,14,36,25.40
2006,08,07,14,37,25.40
2006,08,07,14,38,25.40
2006,08,07,14,39,25.40
2006,08,07,14,40,25.40
2006,08,07,14,41,25.40
2006,08,07,14,42,25.40
2006,08,07,14,43,25.50
2006,08,07,14,44,25.70
2006,08,07,14,45,25.90
2006,08,07,14,46,25.90
2006,08,07,14,47,26.10
2006,08,07,14,48,26.00
2006,08,07,14,49,26.00
2006,08,07,14,50,26.00
2006,08,07,14,51,26.00
2006,08,07,14,52,25.90
2006,08,07,14,53,25.80
2006,08,07,14,54,25.60
2006,08,07,14,55,25.50
2006,08,07,14,56,25.40
2006,08,07,14,57,25.30
2006,08,07,14,58,25.10
2006,08,07,14,59,25.00
2006,08,07,15,00,24.90
2006,08,07,15,01,24.90
2006,08,07,15,02,24.70
2006,08,07,15,03,24.70
2006,08,07,15,04,24.60
2006,08,07,15,05,24.50
2006,08,07,15,06,24.40
2006,08,07,15,07,24.40
2006,08,07,15,08,24.40
2006,08,07,15,09,24.40
2006,08,07,15,10,24.40
2006,08,07,15,11,24.50
2006,08,07,15,12,24.60
2006,08,07,15,13,24.70
2006,08,07,15,14,24.70
2006,08,07,15,15,24.70
2006,08,07,15,16,24.70
2006,08,07,15,17,24.70
2006,08,07,15,18,24.70
2006,08,07,15,19,24.70
2006,08,07,15,20,24.70
2006,08,07,15,21,24.70
2006,08,07,15,22,24.70
2006,08,07,15,23,24.70
2006,08,07,15,24,24.50
2006,08,07,15,25,24.50
2006,08,07,15,26,24.40
2006,08,07,15,27,24.50
2006,08,07,15,28,24.50
2006,08,07,15,29,24.50
2006,08,07,15,30,24.50
2006,08,07,15,31,24.40
2006,08,07,15,32,24.20
2006,08,07,15,33,24.20
2006,08,07,15,34,24.20
2006,08,07,15,35,24.30
2006,08,07,15,36,24.30
2006,08,07,15,37,24.30
2006,08,07,15,38,24.40
2006,08,07,15,39,24.50
2006,08,07,15,40,24.50
2006,08,07,15,41,24.60
2006,08,07,15,42,24.80
2006,08,07,15,43,24.90
2006,08,07,15,44,25.00
2006,08,07,15,45,25.10
2006,08,07,15,46,25.20
2006,08,07,15,47,25.30
2006,08,07,15,48,25.30
2006,08,07,15,49,25.40
2006,08,07,15,50,25.30
2006,08,07,15,51,25.30
2006,08,07,15,52,25.40
2006,08,07,15,53,25.40
2006,08,07,15,54,25.40
2006,08,07,15,55,25.50
2006,08,07,15,56,25.40
2006,08,07,15,57,25.40
2006,08,07,15,58,25.50
2006,08,07,15,59,25.50
2006,08,07,16,00,25.50
2006,08,07,16,01,25.60
2006,08,07,16,02,25.60
2006,08,07,16,03,25.50
2006,08,07,16,04,25.60
2006,08,07,16,05,25.60
2006,08,07,16,06,25.70
2006,08,07,16,07,25.70
2006,08,07,16,08,25.60
2006,08,07,16,09,25.60
2006,08,07,16,10,25.60
2006,08,07,16,11,25.70
2006,08,07,16,12,25.70
2006,08,07,16,13,25.70
2006,08,07,16,14,25.70
2006,08,07,16,15,25.60
2006,08,07,16,16,25.60
2006,08,07,16,17,25.60
2006,08,07,16,18,25.50
2006,08,07,16,19,25.50
2006,08,07,16,20,25.40
2006,08,07,16,21,25.40
2006,08,07,16,22,25.40
2006,08,07,16,23,25.40
2006,08,07,16,24,25.40
2006,08,07,16,25,25.50
2006,08,07,16,26,25.60
2006,08,07,16,27,25.60
2006,08,07,16,28,25.70
2006,08,07,16,29,25.80
2006,08,07,16,30,25.90
2006,08,07,16,31,25.90
2006,08,07,16,32,25.90
2006,08,07,16,33,26.00
2006,08,07,16,34,26.10
2006,08,07,16,35,26.20
2006,08,07,16,36,26.20
2006,08,07,16,37,26.20
2006,08,07,16,38,26.20
2006,08,07,16,39,26.00
2006,08,07,16,40,25.90
2006,08,07,16,41,25.90
2006,08,07,16,42,25.90
2006,08,07,16,43,25.80
2006,08,07,16,44,25.70
2006,08,07,16,45,25.60
2006,08,07,16,46,25.60
2006,08,07,16,47,25.60
2006,08,07,16,48,25.60
2006,08,07,16,49,25.40
2006,08,07,16,50,25.40
2006,08,07,16,51,25.30
2006,08,07,16,52,25.30
2006,08,07,16,53,25.30
2006,08,07,16,54,25.20
2006,08,07,16,55,25.00
2006,08,07,16,56,24.90
2006,08,07,16,57,24.90
2006,08,07,16,58,24.80
2006,08,07,16,59,24.70
2006,08,07,17,00,24.50
2006,08,07,17,01,24.40
2006,08,07,17,02,24.30
2006,08,07,17,03,24.30
2006,08,07,17,04,24.30
2006,08,07,17,05,24.20
2006,08,07,17,06,24.20
2006,08,07,17,07,24.10
2006,08,07,17,08,24.10
2006,08,07,17,09,24.00
2006,08,07,17,10,23.90
2006,08,07,17,11,23.90
2006,08,07,17,12,24.10
2006,08,07,17,13,24.10
2006,08,07,17,14,24.10
2006,08,07,17,15,24.10
2006,08,07,17,16,24.10
2006,08,07,17,17,24.10
2006,08,07,17,18,24.10
2006,08,07,17,19,24.10